Regional Weather Roundup
Issued by NWS

Home | Current Version | Previous Version | Graphics & Text | Print | Product List | Glossary On
Versions: 1 2 3 4 5 6 7 8 9 10 11 12 13 14 15 16 17 18 19 20 21 22 23 24 25 26 27 28 29 30 31 32 33 34 35 36 37 38 39 40 41 42 43 44 45 46 47 48 49 50
000
ASUS43 KMKX 020221
RWRWI

WISCONSIN REGIONAL WEATHER ROUNDUP
NATIONAL WEATHER SERVICE MILWAUKEE/SULLIVAN WI
900 PM CDT SAT AUG 01 2015

NOTE: "FAIR" INDICATES FEW OR NO CLOUDS BELOW 12,000 FEET WITH NO
SIGNIFICANT WEATHER AND/OR OBSTRUCTIONS TO VISIBILITY.

WIZ001-002-006>008-014>016-023>028-020300-
NORTHWEST WISCONSIN

CITY           SKY/WX    TMP DP  RH WIND       PRES   REMARKS
SUPERIOR ARPT  CLEAR     70  60  70 SW7       29.73F
ASHLAND        PTCLDY    68  57  68 S7        29.76F
HAYWARD        PTCLDY    70  58  65 S3        29.81S
SIREN          PTCLDY    71  62  72 S5        29.80F
CUMBERLAND     PTCLDY    66  63  88 CALM      29.82S
RICE LAKE      PTCLDY    68  61  79 CALM      29.83S
CHETEK         PTCLDY    70  63  79 CALM      29.82S
LADYSMITH      PTCLDY    68  60  75 CALM      29.84F
EAU CLAIRE     CLEAR     73  61  65 S3        29.80F
MENOMONIE      CLEAR     72  64  75 SE3       29.80F
NEW RICHMOND   CLEAR     74  64  69 S3        29.80F
OSCEOLA        CLEAR     73  65  74 SE3       29.81F
$$

WIZ003>005-009-010-017-018-020300-
NORTH CENTRAL WISCONSIN

CITY           SKY/WX    TMP DP  RH WIND       PRES   REMARKS
MANITOWISH WTR MOCLDY    64  58  81 SW5       29.81F
ARBOR VITAE    PTCLDY    69  57  65 SW3       29.83S
WOODRUFF       PTCLDY    69  57  65 SW3       29.83S
RHINELANDER    PTCLDY    65  55  70 CALM      29.84F
EAGLE RIVER    CLEAR     65  53  64 SW5       29.82F
LAND O LAKES   CLEAR     67  53  60 CALM      29.82F
PHILLIPS       PTCLDY    68  58  71 SW5       29.81F
TOMAHAWK       PTCLDY    65  56  71 CALM      29.84F
MEDFORD        CLEAR     60  58  92 S3        29.85S
MERRILL        NOT AVBL
$$

WIZ029-030-035-036-043>047-020300-
CENTRAL WISCONSIN

CITY           SKY/WX    TMP DP  RH WIND       PRES   REMARKS
WAUSAU         CLEAR     72  55  55 SW5       29.83S
MOSINEE        CLEAR     68  54  60 CALM      29.85F
MARSHFIELD     CLEAR     70  59  68 S3        29.84F
STEVENS POINT  PTCLDY    67  55  66 CALM      29.85S
WAUPACA        CLEAR     71  57  60 CALM      29.84S
WAUTOMA        CLEAR     71  58  63 CALM      29.85F
WISC RAPIDS    CLEAR     70  58  65 SW3       29.85F
CAMP DOUGLAS   NOT AVBL
$$

WIZ011>013-019>022-031-037>040-048>050-020300-
NORTHEAST WISCONSIN

CITY           SKY/WX    TMP DP  RH WIND       PRES   REMARKS
ANTIGO         PTCLDY    64  55  73 SW6       29.85S
SHAWANO        CLEAR     70  56  60 CALM      29.83S
OCONTO         CLEAR     65  56  71 CALM      29.81S
STURGEON BAY   CLEAR     70  54  56 SW6       29.84S
GREEN BAY      CLEAR     65  59  81 CALM      29.83S
MANITOWOC      CLEAR     69  57  65 MISG      29.85R
APPLETON       PTCLDY    73  52  46 VRB3      29.86R
CLINTONVILLE   CLEAR     66  54  63 CALM      29.83S
OSHKOSH        CLEAR     67  57  70 S3        29.84S
$$

WIZ032>034-041-042-053>061-020300-
SOUTHWEST WISCONSIN

CITY           SKY/WX    TMP DP  RH WIND       PRES   REMARKS
LA CROSSE      CLEAR     77  66  68 S6        29.82F
SPARTA         CLEAR     69  62  77 CALM      29.85F
VIROQUA        CLEAR     73  64  74 S6        29.88S
BOSCOBEL       CLEAR     74  66  76 CALM      29.86F
PRAIRIE DU CHI CLEAR     76  65  68 CALM      29.86S
PLATTEVILLE    CLEAR     73  69  86 SW7       29.90S
$$

WIZ056-057-062-063-064-067-068-020300-
SOUTH CENTRAL WISCONSIN

CITY           SKY/WX    TMP DP  RH WIND       PRES   REMARKS
REEDSBURG      CLEAR     73  63  70 S3        29.86F
BARABOO/DELLS  CLEAR     72  59  63 CALM      29.87S
LONE ROCK      CLEAR     69  64  84 CALM      29.87S
MINERAL POINT  CLEAR     77  63  61 SW6       29.90S
MADISON        PTCLDY    72  62  71 SW3       29.87S
MIDDLETON      CLEAR     70  64  82 CALM      29.88S
WATERTOWN      CLEAR     72  64  75 CALM      29.87R
MONROE         CLEAR     73  63  68 SW8       29.90S
JANESVILLE     CLEAR     75  63  64 SW6       29.88S
$$

WIZ051-052-058>065-066-070>072-020300-
SOUTHEAST WISCONSIN

CITY           SKY/WX    TMP DP  RH WIND       PRES   REMARKS
MILWAUKEE      PTCLDY    74  59  59 S6        29.88R
WAUKESHA       CLEAR     72  57  60 SW3       29.89S
MILWAUKEE/TIMM CLEAR     75  57  53 CALM      29.88R
RACINE         CLEAR     74  62  66 S6        29.89S
BURLINGTON     CLEAR     68  62  81 CALM      29.89R
KENOSHA        CLEAR     70  62  76 SE3       29.89R
FOND DU LAC    CLEAR     71  59  65 SW5       29.86R
SHEBOYGAN      CLEAR     66  59  78 CALM      29.86R
WEST BEND      CLEAR     72  57  60 CALM      29.87R
JUNEAU         CLEAR     70  62  77 CALM      29.88S
$$

LSZ147-162-020300-
LAKE SUPERIOR

STATION/POSITION TIME  TEMP    WIND        PRES    WAVE
                       AIR SEA DIR/SP/G            HT/PER
                 (UTC) (F)     (DEG/KT/KT) (MB)    (FT/S)
W MID LAKE BUOY  0150   62 55  210/ 12/ 12 1005.6F   1/ 3
DEVILS ISLAND    0200   71     220/ 12/ 14 1006.1F
PORT WING        0100   77     190/  6/ 11 1007.5F
SAXON HARBOR     0100   76                 1007.5F
$$

LMZ867-665-643>646-020300-
LAKE MICHIGAN

STATION/POSITION TIME  TEMP    WIND        PRES    WAVE
                       AIR SEA DIR/SP/G            HT/PER
                 (UTC) (F)     (DEG/KT/KT) (MB)    (FT/S)
CHAMBERS ISLAND  0100   73     200/  2/  4 1009.1S
S GREEN BAY BUOY 0030   72 71  240/  6/  8 1011.3
N MID LAKE BUOY  0150   71 69  210/ 12/ 16 1008.5S   2/ 4
NORTHPORT PIER   0100   76     270/  2/  4 1009.1S
SISTER BAY       0114   76     280/  7/  7   N/A
ALGOMA LAKESHORE 0112             CALM       N/A
KEWAUNEE LAKESHO 0200   73      CALM  /  2 1009.8R
SHEBOYGAN LAKESH 0200   73     180/  7/  8 1011.0R
PORT WASHINGTON  0200   67     200/  8/ 25 1011.9R
ATWATER BUOY     0200   71 65  180/  8/ 10 1013.0R
MILWAUKEE LAKESH 0200   70     190/  3/  4   N/A
KENOSHA   LAKESH 0200   72     170/  5/  6 1011.5R
$$

TC  - TEMPERATURE IN CELSIUS
VSB - VISIBILITY IN STATUTE MILES
WCI - WIND CHILL INDEX
HX  - HEAT INDEX



USA.gov is the U.S. government's official web portal to all federal, state and local government web resources and services.